| time (UTC) | temp C | wind direction | speed KPH | gust KPH | rain 1hr cm | rain 24hr cm | rain mn cm | humidity % | barometer mb |
| 20260901174549 | -17 | 36 | 12.9 | 40.2 | 0.00 | 0.00 | 0.00 | 1016.9 | |
| 20260901173046 | -17 | 354 | 9.7 | 46.7 | 0.00 | 0.00 | 0.00 | 1016.9 | |
| 20260901171549 | -17 | 41 | 17.7 | 37.0 | 0.00 | 0.00 | 0.00 | 1016.9 | |
| 20260901170100 | -17 | 76 | 19.3 | 49.9 | 0.00 | 0.00 | 0.00 | 1016.8 | |
| 20260901164537 | -17 | 330 | 16.1 | 46.7 | 0.00 | 0.00 | 0.00 | 1016.7 | |
| 20260901163038 | -17 | 41 | 20.9 | 37.0 | 0.00 | 0.00 | 0.00 | 1016.7 | |
| 20260901161525 | -17 | 28 | 19.3 | 37.0 | 0.00 | 0.00 | 0.00 | 1016.7 | |
| 20260901160020 | -17 | 336 | 16.1 | 32.2 | 0.00 | 0.00 | 0.00 | 1016.7 | |
| 20260901154515 | -17 | 352 | 12.9 | 30.6 | 0.00 | 0.00 | 0.00 | 1016.8 | |
| 20260901153011 | -17 | 50 | 14.5 | 29.0 | 0.00 | 0.00 | 0.00 | 1016.9 | |
| 20260901151510 | -17 | 46 | 1.6 | 32.2 | 0.00 | 0.00 | 0.00 | 1017.1 | |
| 20260901150004 | -17 | 36 | 9.7 | 33.8 | 0.00 | 0.00 | 0.00 | 1017.2 | |
| 20260901144502 | -17 | 46 | 16.1 | 29.0 | 0.00 | 0.00 | 0.00 | 1017.5 | |
| 20260901143101 | -17 | 6 | 17.7 | 35.4 | 0.00 | 0.00 | 0.00 | 1017.6 | |
| 20260901141600 | -17 | 52 | 16.1 | 32.2 | 0.00 | 0.00 | 0.00 | 1017.6 | |
| 20260901140108 | -17 | 14 | 11.3 | 33.8 | 0.00 | 0.00 | 0.00 | 1017.9 | |
| 20260901134557 | -17 | 55 | 19.3 | 32.2 | 0.00 | 0.00 | 0.00 | 1017.8 | |
| 20260901133032 | -17 | 354 | 14.5 | 29.0 | 0.00 | 0.00 | 0.00 | 1018.0 | |
| 20260901131539 | -17 | 24 | 17.7 | 29.0 | 0.00 | 0.00 | 0.00 | 1018.2 | |
| 20260901130024 | -17 | 46 | 14.5 | 27.4 | 0.00 | 0.00 | 0.00 | 1018.4 | |
| 20260901124521 | -17 | 36 | 16.1 | 24.1 | 0.00 | 0.00 | 0.00 | 1018.6 | |
| 20260901123030 | -17 | 59 | 3.2 | 35.4 | 0.00 | 0.00 | 0.00 | 1018.6 | |
| 20260901121520 | -17 | 3 | 20.9 | 35.4 | 0.00 | 0.00 | 0.00 | 1018.6 | |
| 20260901120019 | -17 | 20 | 11.3 | 35.4 | 0.00 | 0.00 | 0.00 | 1018.8 | |
| 20260901114535 | -17 | 46 | 9.7 | 49.9 | 0.00 | 0.00 | 0.00 | 1018.8 | |
| 20260901113021 | -17 | 17 | 14.5 | 30.6 | 0.00 | 0.00 | 0.00 | 1018.9 | |
| 20260901111515 | -17 | 46 | 16.1 | 25.7 | 0.00 | 0.00 | 0.00 | 1019.0 | |
| 20260901110013 | -17 | 18 | 16.1 | 29.0 | 0.00 | 0.00 | 0.00 | 1019.0 | |
| 20260901104513 | -17 | 19 | 11.3 | 20.9 | 0.00 | 0.00 | 0.00 | 1018.9 | |
| 20260901103016 | -17 | 54 | 9.7 | 27.4 | 0.00 | 0.00 | 0.00 | 1018.9 | |
| 20260901101505 | -17 | 36 | 12.9 | 20.9 | 0.00 | 0.00 | 0.00 | 1018.9 | |
| 20260901100104 | -17 | 54 | 6.4 | 16.1 | 0.00 | 0.00 | 0.00 | 1018.7 | |
| 20260901094557 | -17 | 329 | 0.0 | 11.3 | 0.00 | 0.00 | 0.00 | 1018.6 | |
| 20260901093052 | -17 | 237 | 4.8 | 12.9 | 0.00 | 0.00 | 0.00 | 1018.7 | |
| 20260901091547 | -17 | 233 | 0.0 | 9.7 | 0.00 | 0.00 | 0.00 | 1018.6 | |
| 20260901090043 | -17 | 245 | 4.8 | 12.9 | 0.00 | 0.00 | 0.00 | 1018.5 | |
| 20260901084553 | -17 | 236 | 3.2 | 9.7 | 0.00 | 0.00 | 0.00 | 1018.5 | |
| 20260901083037 | -17 | 266 | 6.4 | 11.3 | 0.00 | 0.00 | 0.00 | 1018.4 | |
| 20260901081531 | -17 | 231 | 8.0 | 12.9 | 0.00 | 0.00 | 0.00 | 1018.2 | |
| 20260901080028 | -17 | 234 | 4.8 | 14.5 | 0.00 | 0.00 | 0.00 | 1018.1 | |
| 20260901074523 | -17 | 213 | 8.0 | 16.1 | 0.00 | 0.00 | 0.00 | 1017.9 | |
| 20260901073018 | -17 | 237 | 11.3 | 16.1 | 0.00 | 0.00 | 0.00 | 1017.7 | |
| 20260901071514 | -17 | 228 | 9.7 | 16.1 | 0.00 | 0.00 | 0.00 | 1017.7 | |
| 20260901070009 | -17 | 239 | 4.8 | 12.9 | 0.00 | 0.00 | 0.00 | 1017.6 | |
| 20260901064507 | -17 | 237 | 9.7 | 14.5 | 0.00 | 0.00 | 0.00 | 1017.3 | |
| 20260901063115 | -17 | 243 | 0.0 | 9.7 | 0.00 | 0.00 | 0.00 | 1017.3 | |
| 20260901061556 | -17 | 239 | 4.8 | 9.7 | 0.00 | 0.00 | 0.00 | 1017.0 | |
| 20260901060051 | -17 | 252 | 3.2 | 9.7 | 0.00 | 0.00 | 0.00 | 1017.0 | |
| 20260901054547 | -17 | 234 | 12.9 | 24.1 | 0.00 | 0.00 | 0.00 | 1017.0 | |
| 20260901053051 | -17 | 236 | 9.7 | 16.1 | 0.00 | 0.00 | 0.00 | 1017.0 | |
| 20260901051539 | -17 | 230 | 6.4 | 12.9 | 0.00 | 0.00 | 0.00 | 1016.9 | |
| 20260901050034 | -17 | 226 | 4.8 | 12.9 | 0.00 | 0.00 | 0.00 | 1016.9 | |
| 20260901044535 | -17 | 235 | 8.0 | 12.9 | 0.00 | 0.00 | 0.00 | 1016.9 | |
| 20260901043026 | -17 | 233 | 8.0 | 12.9 | 0.00 | 0.00 | 0.00 | 1017.1 | |
| 20260901041520 | -17 | 253 | 8.0 | 12.9 | 0.00 | 0.00 | 0.00 | 1016.9 | |
| 20260901040016 | -17 | 257 | 4.8 | 8.0 | 0.00 | 0.00 | 0.00 | 1016.9 | |
| 20260901034515 | -17 | 260 | 3.2 | 9.7 | 0.00 | 0.00 | 0.00 | 1017.0 | |
| 20260901033007 | -17 | 246 | 0.0 | 0.0 | 0.00 | 0.00 | 0.00 | 1017.1 | |
| 20260901031504 | -17 | 68 | 6.4 | 16.1 | 0.00 | 0.00 | 0.00 | 1017.3 | |
| 20260901030058 | -17 | 259 | 0.0 | 9.7 | 0.00 | 0.00 | 0.00 | 1017.6 | |
| 20260901024600 | -17 | 255 | 4.8 | 11.3 | 0.00 | 0.00 | 0.00 | 1017.7 | |
| 20260901023054 | -17 | 285 | 0.0 | 6.4 | 0.00 | 0.00 | 0.00 | 1017.8 | |
| 20260901021550 | -17 | 256 | 0.0 | 8.0 | 0.00 | 0.00 | 0.00 | 1018.1 | |
| 20260901020042 | -17 | 243 | 6.4 | 17.7 | 0.00 | 0.00 | 0.00 | 1018.0 | |
| 20260901014537 | -17 | 241 | 8.0 | 14.5 | 0.00 | 0.00 | 0.00 | 1018.3 | |
| 20260901013037 | -17 | 254 | 6.4 | 12.9 | 0.00 | 0.00 | 0.00 | 1018.4 | |
| 20260901011532 | -17 | 253 | 8.0 | 11.3 | 0.00 | 0.00 | 0.00 | 1018.4 | |
| 20260901010027 | -17 | 250 | 4.8 | 9.7 | 0.00 | 0.00 | 0.00 | 1018.6 | |
| 20260901004517 | -17 | 246 | 4.8 | 8.0 | 0.00 | 0.00 | 0.00 | 1018.7 | |
| 20260901003021 | -17 | 264 | 3.2 | 8.0 | 0.00 | 0.00 | 0.00 | 1018.9 | |
| 20260901001508 | -17 | 264 | 6.4 | 14.5 | 0.00 | 0.00 | 0.00 | 1019.0 | |
| 20260901000004 | -17 | 250 | 3.2 | 8.0 | 0.00 | 0.00 | 0.00 | 1019.0 | |
| 20260831234600 | -17 | 245 | 0.0 | 0.0 | 0.00 | 0.00 | 0.00 | 1018.9 | |
| 20260831233037 | -17 | 245 | 0.0 | 4.8 | 0.00 | 0.00 | 0.00 | 1019.1 | |
| 20260831231532 | -17 | 230 | 0.0 | 9.7 | 0.00 | 0.00 | 0.00 | 1019.2 | |
| 20260831230028 | -17 | 295 | 0.0 | 11.3 | 0.00 | 0.00 | 0.00 | 1019.3 | |
| 20260831224527 | -17 | 292 | 6.4 | 11.3 | 0.00 | 0.00 | 0.00 | 1019.3 | |
| 20260831223024 | -17 | 248 | 0.0 | 8.0 | 0.00 | 0.00 | 0.00 | 1019.4 | |
| 20260831221528 | -17 | 237 | 0.0 | 8.0 | 0.00 | 0.00 | 0.00 | 1019.6 | |
| 20260831220015 | -17 | 310 | 4.8 | 6.4 | 0.00 | 0.00 | 0.00 | 1019.5 | |
| 20260831214509 | -17 | 287 | 0.0 | 6.4 | 0.00 | 0.00 | 0.00 | 1019.5 | |
| 20260831213009 | -17 | 302 | 3.2 | 9.7 | 0.00 | 0.00 | 0.00 | 1019.3 | |
| 20260831211502 | -17 | 170 | 0.0 | 8.0 | 0.00 | 0.00 | 0.00 | 1019.1 | |
| 20260831210057 | -17 | 46 | 0.0 | 6.4 | 0.00 | 0.00 | 0.00 | 1018.8 | |
| 20260831204553 | -17 | 13 | 1.6 | 8.0 | 0.00 | 0.00 | 0.00 | 1018.4 | |
| 20260831203049 | -17 | 28 | 11.3 | 20.9 | 0.00 | 0.00 | 0.00 | 1018.0 | |
| 20260831201544 | -17 | 63 | 6.4 | 17.7 | 0.00 | 0.00 | 0.00 | 1017.8 | |
| 20260831200042 | -17 | 41 | 6.4 | 19.3 | 0.00 | 0.00 | 0.00 | 1017.6 | |
| 20260831194535 | -17 | 69 | 6.4 | 19.3 | 0.00 | 0.00 | 0.00 | 1017.4 | |
| 20260831193039 | -17 | 143 | 8.0 | 19.3 | 0.00 | 0.00 | 0.00 | 1017.2 | |
| 20260831191526 | -17 | 70 | 8.0 | 27.4 | 0.00 | 0.00 | 0.00 | 1017.1 | |
| 20260831190038 | -17 | 76 | 9.7 | 27.4 | 0.00 | 0.00 | 0.00 | 1017.2 | |
| 20260831184516 | -17 | 110 | 12.9 | 27.4 | 0.00 | 0.00 | 0.00 | 1017.1 | |
| 20260831183015 | -17 | 73 | 14.5 | 27.4 | 0.00 | 0.00 | 0.00 | 1016.8 | |
| 20260831181508 | -17 | 78 | 12.9 | 32.2 | 0.00 | 0.00 | 0.00 | 1016.8 | |
| 20260831180104 | -17 | 52 | 16.1 | 30.6 | 0.00 | 0.00 | 0.00 | 1017.0 |